Location: Gniazdowice
(50.2124°N, 20.2673°E)
Time: 14:30:36
(UTC+00:00)

Cosmos 1455 - Pass Details

Date: 23 May 2024
Orbit: 445 x 461 km, 82.5° (Epoch: 12 June)

Event Time Altitude Azimuth Distance (km) Brightness Sun altitude
Rises 00:24:50 0° 345° (NNW) 2,461 6.4 -15.2°
Reaches altitude 10° 00:26:56 10° 340° (NNW) 1,585 5.3 -15.0°
Maximum altitude 00:30:16 50° 265° (W) 583 2.2 -14.8°
Enters shadow 00:31:36 30° 207° (SSW) 825 2.6 -14.7°
